| time (UTC) | temp F | wind direction | speed knots | gust knots | rain 1hr in | rain 24hr in | rain mn in | humidity % | barometer mb |
| 20260504194904 | 72 | 274 | 4.3 | 9.6 | 0.00 | 0.00 | 0.00 | 27 | 1001.6 |
| 20260504193903 | 73 | 286 | 2.6 | 7.0 | 0.00 | 0.00 | 0.00 | 27 | 1001.7 |
| 20260504192909 | 73 | 249 | 1.7 | 5.2 | 0.00 | 0.00 | 0.00 | 27 | 1001.8 |
| 20260504191905 | 73 | 260 | 2.6 | 9.6 | 0.00 | 0.00 | 0.00 | 27 | 1001.9 |
| 20260504190905 | 72 | 249 | 3.5 | 7.8 | 0.00 | 0.00 | 0.00 | 27 | 1002.0 |
| 20260504185905 | 72 | 211 | 1.7 | 7.8 | 0.00 | 0.00 | 0.00 | 27 | 1002.0 |
| 20260504184904 | 72 | 211 | 1.7 | 7.8 | 0.00 | 0.00 | 0.00 | 27 | 1002.5 |
| 20260504183905 | 72 | 254 | 2.6 | 7.0 | 0.00 | 0.00 | 0.00 | 27 | 1002.4 |
| 20260504182905 | 71 | 274 | 2.6 | 9.6 | 0.00 | 0.00 | 0.00 | 27 | 1002.6 |
| 20260504181905 | 72 | 280 | 3.5 | 9.6 | 0.00 | 0.00 | 0.00 | 27 | 1002.8 |
| 20260504180904 | 72 | 194 | 0.9 | 4.3 | 0.00 | 0.00 | 0.00 | 28 | 1002.8 |
| 20260504175904 | 71 | 277 | 2.6 | 8.7 | 0.00 | 0.00 | 0.00 | 27 | 1003.0 |
| 20260504174906 | 70 | 244 | 4.3 | 11.3 | 0.00 | 0.00 | 0.00 | 27 | 1003.2 |
| 20260504173903 | 70 | 285 | 3.5 | 11.3 | 0.00 | 0.00 | 0.00 | 28 | 1003.2 |
| 20260504172906 | 70 | 231 | 2.6 | 7.8 | 0.00 | 0.00 | 0.00 | 29 | 1003.4 |
| 20260504171904 | 69 | 270 | 1.7 | 12.2 | 0.00 | 0.00 | 0.00 | 30 | 1003.5 |
| 20260504170907 | 69 | 254 | 1.7 | 9.6 | 0.00 | 0.00 | 0.00 | 31 | 1003.6 |
| 20260504150904 | 65 | 235 | 1.7 | 11.3 | 0.00 | 0.00 | 0.00 | 38 | 1005.0 |
| 20260504140904 | 61 | 171 | 0.9 | 7.8 | 0.00 | 0.00 | 0.00 | 49 | 1005.3 |
| 20260504081904 | 47 | 262 | 0.0 | 2.6 | 0.00 | 0.00 | 0.00 | 55 | 1005.8 |
| 20260504080904 | 47 | 0 | 0.0 | 0.9 | 0.00 | 0.00 | 0.00 | 52 | 1005.9 |
| 20260504080243 | 47 | 259 | 0.0 | 1.7 | 0.00 | 0.00 | 0.00 | 51 | 1006.0 |
| 20260504080230 | 46 | 0 | 0.0 | 2.6 | 0.00 | 0.00 | 0.00 | 52 | 1006.0 |
| 20260504045904 | 50 | 284 | 0.0 | 1.7 | 0.00 | 0.00 | 0.00 | 44 | 1005.7 |
| 20260504044907 | 50 | 295 | 0.9 | 2.6 | 0.00 | 0.00 | 0.00 | 43 | 1005.6 |
| 20260504043903 | 50 | 279 | 0.0 | 0.9 | 0.00 | 0.00 | 0.00 | 43 | 1005.6 |
| 20260504042905 | 51 | 256 | 0.0 | 2.6 | 0.00 | 0.00 | 0.00 | 42 | 1005.4 |
| 20260504041903 | 51 | 292 | 0.0 | 1.7 | 0.00 | 0.00 | 0.00 | 42 | 1005.3 |
| 20260504040903 | 52 | 269 | 0.0 | 2.6 | 0.00 | 0.00 | 0.00 | 41 | 1005.3 |
| 20260504035903 | 52 | 273 | 1.7 | 4.3 | 0.00 | 0.00 | 0.00 | 41 | 1005.1 |
| 20260504034903 | 52 | 265 | 0.9 | 3.5 | 0.00 | 0.00 | 0.00 | 41 | 1005.1 |
| 20260504033904 | 52 | 282 | 0.9 | 2.6 | 0.00 | 0.00 | 0.00 | 41 | 1005.1 |
| 20260504032905 | 52 | 271 | 0.9 | 3.5 | 0.00 | 0.00 | 0.00 | 41 | 1005.1 |
| 20260504031904 | 52 | 269 | 0.0 | 2.6 | 0.00 | 0.00 | 0.00 | 41 | 1004.9 |
| 20260504030904 | 52 | 290 | 0.9 | 1.7 | 0.00 | 0.00 | 0.00 | 40 | 1005.0 |
| 20260504025903 | 52 | 267 | 0.9 | 2.6 | 0.00 | 0.00 | 0.00 | 40 | 1005.0 |
| 20260504024904 | 52 | 264 | 0.9 | 3.5 | 0.00 | 0.00 | 0.00 | 40 | 1005.0 |
| 20260504023904 | 53 | 268 | 0.0 | 1.7 | 0.00 | 0.00 | 0.00 | 40 | 1004.9 |
| 20260504022904 | 53 | 261 | 0.9 | 3.5 | 0.00 | 0.00 | 0.00 | 39 | 1005.1 |
| 20260504021903 | 53 | 269 | 0.9 | 3.5 | 0.00 | 0.00 | 0.00 | 39 | 1005.0 |
| 20260504020905 | 53 | 257 | 0.9 | 3.5 | 0.00 | 0.00 | 0.00 | 39 | 1004.9 |
| 20260504015903 | 53 | 271 | 0.9 | 2.6 | 0.00 | 0.00 | 0.00 | 39 | 1005.1 |
| 20260504014903 | 53 | 263 | 0.0 | 1.7 | 0.00 | 0.00 | 0.00 | 38 | 1004.8 |
| 20260504013904 | 53 | 260 | 0.9 | 1.7 | 0.00 | 0.00 | 0.00 | 37 | 1004.8 |
| 20260504012904 | 53 | 278 | 0.0 | 2.6 | 0.00 | 0.00 | 0.00 | 37 | 1004.8 |
| 20260504011903 | 54 | 284 | 0.0 | 0.9 | 0.00 | 0.00 | 0.00 | 37 | 1004.6 |
| 20260504010903 | 54 | 275 | 0.9 | 1.7 | 0.00 | 0.00 | 0.00 | 35 | 1004.5 |
| 20260504005903 | 55 | 281 | 0.9 | 2.6 | 0.00 | 0.00 | 0.00 | 35 | 1004.3 |
| 20260504004904 | 55 | 277 | 0.0 | 2.6 | 0.00 | 0.00 | 0.00 | 34 | 1004.1 |
| 20260504003904 | 55 | 310 | 0.0 | 1.7 | 0.00 | 0.00 | 0.00 | 34 | 1004.0 |
| 20260504002905 | 56 | 279 | 0.9 | 1.7 | 0.00 | 0.00 | 0.00 | 33 | 1003.9 |
| 20260504001904 | 56 | 265 | 0.9 | 2.6 | 0.00 | 0.00 | 0.00 | 32 | 1003.8 |
| 20260504000904 | 57 | 279 | 0.0 | 1.7 | 0.00 | 0.00 | 0.00 | 31 | 1003.8 |
| 20260503235904 | 57 | 300 | 0.9 | 2.6 | 0.00 | 0.00 | 0.00 | 30 | 1003.7 |
| 20260503234904 | 58 | 265 | 0.9 | 3.5 | 0.00 | 0.00 | 0.00 | 30 | 1003.6 |
| 20260503233904 | 59 | 278 | 2.6 | 7.0 | 0.00 | 0.00 | 0.00 | 29 | 1003.6 |
| 20260503232903 | 59 | 268 | 2.6 | 8.7 | 0.00 | 0.00 | 0.00 | 27 | 1003.4 |
| 20260503231903 | 60 | 272 | 3.5 | 10.4 | 0.00 | 0.00 | 0.00 | 27 | 1003.4 |
| 20260503230903 | 60 | 292 | 4.3 | 12.2 | 0.00 | 0.00 | 0.00 | 26 | 1003.5 |
| 20260503225904 | 60 | 317 | 4.3 | 9.6 | 0.00 | 0.00 | 0.00 | 26 | 1003.2 |
| 20260503224903 | 61 | 296 | 6.1 | 11.3 | 0.00 | 0.00 | 0.00 | 25 | 1003.2 |
| 20260503223903 | 61 | 303 | 3.5 | 7.0 | 0.00 | 0.00 | 0.00 | 25 | 1003.2 |
| 20260503222903 | 61 | 297 | 3.5 | 10.4 | 0.00 | 0.00 | 0.00 | 25 | 1003.2 |
| 20260503221904 | 61 | 306 | 7.0 | 12.2 | 0.00 | 0.00 | 0.00 | 25 | 1003.1 |
| 20260503220903 | 61 | 306 | 7.0 | 13.0 | 0.00 | 0.00 | 0.00 | 25 | 1003.2 |
| 20260503215904 | 60 | 279 | 7.0 | 12.2 | 0.00 | 0.00 | 0.00 | 25 | 1003.3 |
| 20260503214903 | 60 | 306 | 4.3 | 8.7 | 0.00 | 0.00 | 0.00 | 25 | 1003.3 |
| 20260503213904 | 60 | 299 | 7.0 | 14.8 | 0.00 | 0.00 | 0.00 | 25 | 1003.1 |
| 20260503212906 | 60 | 270 | 5.2 | 11.3 | 0.00 | 0.00 | 0.00 | 25 | 1003.2 |
| 20260503211907 | 60 | 278 | 7.0 | 15.6 | 0.00 | 0.00 | 0.00 | 25 | 1003.2 |
| 20260503210906 | 61 | 335 | 5.2 | 11.3 | 0.00 | 0.00 | 0.00 | 25 | 1003.2 |
| 20260503205905 | 60 | 327 | 4.3 | 13.0 | 0.00 | 0.00 | 0.00 | 26 | 1003.3 |
| 20260503204905 | 59 | 302 | 8.7 | 15.6 | 0.00 | 0.00 | 0.00 | 26 | 1003.4 |
| 20260503203905 | 58 | 310 | 6.1 | 11.3 | 0.00 | 0.00 | 0.00 | 26 | 1003.5 |
| 20260503202905 | 59 | 322 | 5.2 | 12.2 | 0.00 | 0.00 | 0.00 | 26 | 1003.4 |
| 20260503201907 | 59 | 300 | 10.4 | 15.6 | 0.00 | 0.00 | 0.00 | 25 | 1003.5 |
| 20260503200906 | 60 | 317 | 4.3 | 12.2 | 0.00 | 0.00 | 0.00 | 26 | 1003.4 |
| 20260503195905 | 59 | 316 | 6.1 | 15.6 | 0.00 | 0.00 | 0.00 | 26 | 1003.5 |